Wind_Speed
40 40 39 39 38 38 38 38 38 37 36 35 35 34 34 33 33 33 33 33 33 33 33 32 32 31 30 30 29 28 27 27 27 26 25 25 24 24 24 24 24 23 23 22 22 22 22 22 21 21 21 20 20 20 20 19 18 17 17 17 18 18 18 17 17 17 17 17 17 16 17 17 17 16 13 11 10 9 11 15 19 22 25 26 25 24 22 21
42 41 40 40 39 39 39 39 39 38 37 37 36 35 35 35 34 34 34 34 34 34 34 33 32 32 31 30 29 29 28 27 27 26 26 25 25 25 24 24 24 24 24 23 22 22 22 22 21 21 21 20 20 21 20 20 19 18 18 18 18 19 19 18 17 17 17 18 18 17 18 18 18 18 17 14 13 11 12 15 19 22 25 28 28 27 26 24
43 42 42 41 41 40 40 40 40 39 39 38 37 36 36 36 36 35 35 35 35 35 35 34 33 32 31 31 30 29 28 28 27 27 26 25 25 25 24 24 24 24 24 24 23 22 22 22 21 21 21 20 21 21 21 20 19 19 19 19 19 19 20 19 19 19 18 18 19 18 19 20 19 19 20 17 16 16 14 15 18 21 24 28 30 30 29 27
44 43 43 42 42 41 41 41 41 41 40 40 39 38 37 37 37 37 37 37 36 36 35 34 33 33 32 32 31 30 29 28 28 27 26 26 25 25 24 24 25 25 24 24 23 23 22 22 22 22 21 21 21 22 22 21 20 20 20 20 20 20 21 21 21 21 20 20 20 19 20 20 20 20 21 21 20 21 20 18 18 20 23 26 29 31 31 31
45 44 44 43 43 42 42 42 42 42 42 41 40 39 39 38 38 38 38 37 37 37 35 34 34 34 33 32 31 31 29 29 29 27 27 26 25 25 24 24 25 25 25 25 24 23 23 22 22 22 22 22 22 23 22 22 22 22 22 22 21 21 22 22 22 23 23 22 22 21 21 22 21 21 22 23 23 24 24 23 21 21 22 24 26 29 31 33
46 45 44 44 44 43 42 43 42 42 43 42 42 41 40 40 39 39 38 38 38 37 36 35 35 35 34 33 32 31 30 30 30 28 27 26 26 25 25 25 25 25 26 25 25 25 24 23 23 23 23 23 23 24 24 23 23 23 23 23 23 23 23 24 24 25 25 25 25 24 24 24 22 22 23 25 26 27 27 27 26 24 23 24 25 27 29 31
47 46 46 45 44 44 43 43 43 43 43 43 43 42 41 41 40 40 39 39 38 37 36 36 36 36 35 34 33 32 31 31 31 29 28 27 26 26 26 26 26 26 26 26 26 26 25 25 24 24 24 25 25 25 26 26 26 25 25 25 26 25 25 26 26 28 28 27 28 27 26 26 24 24 25 26 28 29 29 30 30 29 27 26 26 27 28 28
48 48 47 46 46 45 44 44 44 44 44 44 44 43 42 42 41 41 40 39 39 38 37 37 37 37 36 35 34 33 31 32 32 30 29 28 28 28 27 27 27 27 27 27 27 27 26 26 26 26 26 26 26 27 27 28 28 27 27 27 27 27 27 27 28 29 29 29 29 29 28 27 25 24 25 26 27 29 30 31 31 32 31 30 29 30 30 30
50 49 48 48 47 46 46 45 45 45 45 45 44 44 43 43 42 42 41 40 39 39 38 38 38 37 37 36 35 34 32 32 33 31 30 30 29 29 29 29 28 28 29 29 29 28 28 28 27 27 28 28 28 28 28 29 29 28 28 28 27 28 28 28 28 28 29 28 29 29 29 28 25 24 25 26 27 29 31 32 32 33 34 34 34 34 33 33
50 50 50 49 49 48 47 47 46 46 46 46 45 45 44 44 44 43 42 41 41 40 39 38 38 38 37 36 36 34 32 33 33 32 32 31 31 31 30 30 30 30 30 30 30 29 29 29 29 29 29 30 29 29 29 29 29 29 29 29 28 28 28 28 28 27 27 28 28 30 30 30 27 26 27 28 28 31 33 34 35 35 37 38 38 39 38 38
51 51 51 50 50 49 49 48 47 47 47 46 46 46 45 45 45 44 43 42 41 40 40 39 38 37 37 36 37 34 32 33 33 32 33 33 32 32 32 32 32 31 31 30 30 30 30 30 30 30 30 30 29 29 29 29 29 29 29 29 28 28 28 29 29 28 28 28 29 31 32 32 30 29 30 31 32 33 35 36 37 38 39 40 41 42 43 43
51 51 52 52 51 50 49 49 49 48 47 47 47 47 47 47 46 45 44 43 42 41 40 40 39 37 37 37 37 34 32 33 33 33 34 34 34 33 33 33 32 32 32 31 31 31 30 31 30 30 30 30 29 29 28 28 28 28 28 28 28 28 29 30 31 31 30 30 31 32 35 36 33 32 33 34 34 36 37 38 39 40 40 41 41 43 44 45
52 52 53 52 52 51 50 50 49 49 48 48 48 48 48 48 48 46 45 44 43 42 41 40 39 38 37 38 38 34 33 33 33 34 34 34 34 34 34 33 33 32 32 31 31 31 31 31 30 30 30 30 30 29 28 27 27 27 27 28 28 29 31 31 31 32 31 31 32 33 37 40 37 34 35 36 37 38 40 41 41 42 42 42 42 43 44 44
52 52 53 53 53 52 52 51 50 50 49 49 49 50 50 49 48 47 45 44 43 42 41 40 39 38 38 40 38 35 34 34 33 34 34 34 34 34 34 34 33 33 33 32 32 32 32 31 30 30 30 30 30 28 27 27 26 26 27 28 29 31 33 33 32 33 33 33 34 34 38 43 42 37 37 38 39 40 40 41 42 43 43 43 43 43 44 44
52 53 53 53 54 53 53 52 51 50 50 50 51 51 51 50 49 48 46 45 44 43 42 41 40 39 39 40 39 36 35 34 34 34 34 34 34 34 35 34 34 34 33 33 33 32 31 30 30 30 30 30 29 28 27 26 27 27 27 29 31 33 36 36 35 35 35 34 35 36 38 43 45 41 39 39 39 40 40 40 41 42 43 43 43 43 44 44
53 53 54 54 54 54 54 53 52 51 51 51 52 52 52 51 50 49 47 46 45 43 42 41 41 40 40 41 40 38 36 35 35 35 34 34 35 35 35 35 35 35 34 34 33 32 30 30 29 29 30 30 30 29 27 27 29 29 29 31 33 34 37 39 38 37 36 35 35 37 38 41 44 43 41 40 39 39 39 39 40 41 43 44 44 44 45 45
53 54 55 55 55 55 55 54 53 53 52 52 52 53 53 52 51 50 49 47 46 45 43 43 42 40 40 42 41 40 37 36 36 36 35 36 36 37 36 36 36 35 35 34 33 32 30 29 29 29 31 32 32 30 27 28 31 31 31 32 33 34 37 41 42 39 37 36 36 37 38 40 43 43 41 41 40 40 40 40 41 42 43 45 46 46 46 47
54 55 56 56 56 56 55 55 55 55 54 53 53 54 54 53 52 51 50 49 47 46 44 43 42 41 41 42 42 41 39 38 38 37 37 38 38 37 37 36 36 35 35 34 33 31 30 29 29 31 34 35 32 30 28 31 33 33 34 34 35 36 38 42 44 41 39 38 37 38 38 40 43 41 40 41 42 42 42 42 42 44 45 46 46 47 49 50
56 56 56 57 57 57 56 56 57 57 55 55 54 55 55 54 54 53 52 50 48 47 45 44 43 42 43 43 43 43 41 40 39 39 39 39 39 38 37 37 36 36 35 34 33 31 31 30 31 35 38 36 32 31 32 34 36 37 37 37 37 38 40 43 44 42 40 37 37 39 38 39 42 41 40 41 42 42 43 44 44 45 46 47 48 51 52 53
57 57 57 58 58 57 57 57 58 58 57 56 56 56 56 56 55 54 53 51 50 48 46 46 45 44 44 45 45 44 43 42 41 41 40 40 40 38 38 37 37 36 36 35 33 33 33 32 35 40 40 35 32 34 36 38 39 39 39 39 39 39 41 43 42 40 38 35 36 38 38 39 42 42 42 42 42 43 45 46 47 47 48 50 52 54 55 55
58 58 58 58 59 58 58 59 59 59 58 58 57 57 57 57 56 55 55 53 52 50 48 47 46 46 47 46 46 45 44 44 43 43 42 41 40 39 39 39 38 38 38 36 35 36 35 34 39 43 39 35 36 38 40 40 40 39 38 37 37 38 39 40 38 37 36 34 35 38 38 40 43 43 44 45 45 47 48 48 49 50 51 54 55 56 56 57
58 58 59 59 59 59 59 60 60 60 59 59 59 58 58 58 57 57 56 54 53 52 50 49 47 48 49 47 46 46 45 45 46 45 44 43 42 41 40 40 40 40 39 38 38 39 36 37 43 43 38 38 40 41 40 39 38 38 37 35 35 36 36 35 36 35 34 33 34 37 38 42 45 46 46 47 47 49 48 48 49 51 53 55 55 55 56 57
57 58 59 59 59 59 59 60 61 61 60 60 60 60 60 59 59 58 57 55 54 53 51 51 49 50 51 49 47 47 46 47 48 48 47 46 45 44 42 42 43 41 41 41 42 40 37 40 45 43 40 41 41 40 40 39 38 38 37 35 35 36 34 33 34 34 32 32 33 35 36 39 43 44 44 45 46 47 47 48 50 52 54 55 56 57 57 57
58 58 59 58 59 59 60 60 61 62 62 61 62 62 61 60 60 60 59 56 54 54 53 52 51 51 52 50 49 48 49 50 49 50 51 49 48 47 44 45 44 43 44 45 43 39 38 43 46 44 42 42 41 41 41 41 40 38 38 37 36 35 34 33 34 34 32 32 34 34 34 37 42 43 44 46 47 48 50 52 54 55 56 57 59 60 60 60
59 59 59 59 58 59 60 60 61 63 63 63 63 63 62 62 61 61 60 57 53 55 56 53 51 52 52 52 51 51 51 50 51 53 53 52 50 49 48 47 46 45 47 46 43 40 41 47 47 45 44 42 42 43 44 42 39 38 38 37 36 35 35 35 36 35 35 35 37 37 35 37 42 46 47 50 51 52 55 57 59 59 60 61 62 63 64 65
61 60 60 60 58 59 60 59 62 64 63 64 64 64 63 63 63 62 62 59 51 54 58 55 52 51 52 54 54 55 53 51 54 56 55 54 53 52 50 49 48 48 49 48 44 40 44 50 48 44 45 44 44 45 45 42 39 38 40 39 38 38 38 38 38 38 38 38 39 40 40 39 41 45 50 53 54 56 58 60 61 63 64 64 65 66 67 67
62 61 61 60 58 58 58 60 64 64 64 65 65 65 64 64 65 64 65 60 49 50 57 56 54 52 53 56 56 57 54 53 57 58 56 56 55 53 52 50 51 51 50 48 45 43 48 51 48 46 46 46 46 46 44 41 40 41 43 43 41 41 41 41 41 41 40 40 40 42 45 43 41 45 50 53 56 59 61 62 64 66 67 68 69 70 70 71
63 63 62 60 59 58 58 59 62 64 66 67 66 67 66 66 67 66 68 60 45 46 53 56 57 56 56 58 59 59 58 57 60 59 59 58 56 55 54 53 53 52 51 50 48 48 50 51 50 49 48 48 48 47 45 44 44 45 46 45 44 44 44 44 44 43 43 42 43 47 51 48 44 47 52 54 58 62 63 65 67 69 70 72 73 74 75 75
65 64 63 62 61 59 58 58 61 64 67 68 69 69 68 69 68 69 70 58 42 43 51 56 60 60 60 60 60 62 62 61 62 61 61 59 57 57 56 55 54 53 53 52 52 53 52 52 52 51 51 50 50 48 49 49 48 48 48 47 47 47 47 47 46 47 47 46 47 52 56 54 48 50 55 58 61 64 66 68 70 71 73 75 76 78 78 79
67 66 65 64 62 60 60 60 62 64 66 69 72 72 72 71 70 73 68 54 45 46 51 57 61 62 63 63 63 64 65 65 64 62 61 60 60 59 58 56 56 55 55 55 55 56 55 54 54 53 53 53 52 52 52 51 50 50 50 50 51 50 50 50 50 52 53 51 52 56 60 59 55 55 61 64 66 68 70 72 74 75 76 77 79 80 80 81
67 68 67 65 63 62 62 62 63 64 66 68 71 73 74 73 74 74 63 53 52 52 51 57 61 63 65 66 67 67 67 67 65 63 62 61 61 60 59 58 58 58 57 57 59 58 56 55 55 55 55 55 56 56 55 54 53 53 54 54 54 54 54 55 55 58 57 55 56 59 61 61 60 62 67 70 71 73 75 77 79 81 81 81 82 82 82 83
68 70 70 67 66 64 62 62 65 67 67 67 68 71 73 75 76 70 59 57 59 54 52 58 61 64 67 68 69 69 68 67 65 64 62 61 61 61 61 61 60 61 59 59 60 58 56 56 57 57 57 58 59 59 59 58 58 58 58 58 59 58 59 59 60 61 60 58 59 61 62 61 60 64 69 73 75 77 79 82 84 85 86 85 85 84 84 85
70 71 70 67 66 64 63 64 68 68 67 67 69 69 73 76 73 64 61 63 62 57 57 60 62 65 68 69 70 69 68 67 65 63 62 62 63 63 63 63 63 62 61 60 61 59 59 59 60 60 61 61 62 62 63 62 62 62 62 63 63 63 64 64 64 64 62 62 63 63 64 62 61 66 71 75 77 79 83 86 88 89 89 88 88 87 87 87
72 71 69 67 66 65 63 64 67 68 68 70 71 72 75 74 65 61 64 66 65 63 63 64 65 67 67 67 67 67 67 66 65 63 62 62 63 64 64 64 64 63 62 62 62 62 62 62 63 63 64 65 65 66 67 66 66 66 66 67 67 68 70 68 66 65 65 65 65 65 67 65 65 69 73 76 80 83 86 89 92 93 92 91 91 90 90 90
73 72 71 69 66 64 63 63 66 68 70 72 74 76 76 68 59 60 64 66 68 69 68 68 69 69 68 67 66 66 67 67 65 64 62 61 62 63 64 64 65 65 64 65 65 66 65 65 66 67 67 69 69 69 70 70 70 70 70 71 71 73 75 72 70 69 69 68 67 67 68 67 69 73 76 79 83 86 89 91 94 94 93 92 92 92 92 91
75 74 72 69 66 64 64 64 68 71 72 74 78 78 72 64 61 63 64 65 69 70 71 72 71 71 71 69 68 68 69 69 68 65 63 62 62 62 63 65 66 67 67 68 69 68 68 68 70 71 71 72 72 72 73 73 74 74 74 75 76 77 77 76 75 73 74 73 70 68 69 70 73 75 77 82 86 89 92 94 94 94 93 93 94 93 93 93
77 75 73 69 67 67 67 67 71 75 75 76 79 76 67 65 68 68 67 67 68 69 72 74 74 75 75 72 71 72 72 72 70 68 66 65 65 64 65 68 68 69 70 71 70 70 70 70 71 73 73 73 74 74 75 76 77 78 78 79 80 80 79 80 80 78 79 79 74 70 71 73 76 78 80 84 88 92 94 94 93 93 94 94 94 94 95 96
79 78 75 70 69 70 71 71 74 77 78 80 80 74 66 68 71 70 70 70 70 71 73 73 75 78 78 76 75 76 76 75 72 71 70 70 69 67 69 71 72 72 73 73 73 71 72 72 72 73 74 75 76 76 76 78 80 81 81 81 82 82 82 83 84 83 82 82 77 74 73 75 78 82 85 86 88 91 94 94 94 94 94 94 94 96 98 101
83 83 78 72 72 74 74 76 78 81 83 84 82 74 68 70 72 72 73 73 73 74 74 73 75 79 79 78 78 79 79 77 75 75 74 73 72 71 73 75 76 77 77 77 77 75 76 76 75 75 77 78 78 78 79 81 83 84 83 83 83 84 85 86 86 84 83 83 82 80 79 79 81 85 87 87 90 92 94 95 95 95 95 95 96 99 102 104
87 88 82 77 77 77 77 81 84 86 88 87 83 76 72 73 74 73 74 74 74 75 74 73 77 80 80 79 79 80 80 79 78 77 76 75 75 74 75 77 79 80 81 80 80 79 80 80 79 80 80 80 80 81 83 85 86 86 86 85 85 86 87 87 85 83 84 88 89 90 89 84 82 86 88 90 92 93 95 95 96 96 95 97 100 102 104 105
89 90 85 81 81 81 82 86 88 90 90 88 84 80 77 76 75 74 75 75 76 75 74 74 76 79 80 79 80 80 80 80 80 79 79 78 77 77 78 80 81 82 82 83 83 83 83 83 83 82 82 82 84 86 87 87 87 87 87 86 86 87 87 86 85 84 88 93 95 98 96 87 83 88 91 92 95 95 95 94 95 96 97 100 103 104 106 109
91 91 87 85 85 85 86 89 90 91 92 90 86 84 82 79 77 76 77 78 78 77 76 76 77 79 79 79 79 80 81 81 80 81 81 80 81 82 82 83 84 84 85 85 85 86 87 86 84 83 84 86 88 88 88 88 88 88 87 86 85 85 84 87 89 89 93 97 97 101 100 89 86 91 95 97 98 96 96 96 97 98 100 102 104 106 111 116
93 92 90 89 88 87 89 92 92 93 93 91 89 88 86 83 80 79 79 80 80 78 77 78 78 80 80 79 80 80 81 81 81 80 80 81 82 84 85 86 87 87 88 88 88 89 89 88 87 87 87 88 88 87 86 87 88 87 86 83 83 84 87 91 94 96 98 98 99 103 102 92 91 97 99 99 99 100 101 102 101 102 103 104 107 112 117 121
95 94 93 92 91 91 93 94 94 93 93 92 91 91 89 86 83 82 81 82 83 81 80 79 80 82 82 83 83 83 83 83 82 81 80 79 80 82 86 88 89 90 90 90 90 91 91 91 90 89 89 87 86 85 84 85 86 85 83 83 85 88 92 95 97 100 101 99 100 105 102 98 100 101 100 100 103 105 107 106 105 106 108 110 114 118 122 125
97 97 96 94 95 96 97 96 94 94 94 94 93 93 91 89 87 85 84 85 85 85 83 82 82 83 85 86 86 86 86 86 85 84 83 81 79 81 84 87 89 90 91 91 91 92 92 91 90 88 86 84 82 82 82 83 85 85 84 86 90 93 95 97 100 101 102 102 103 104 104 106 106 102 102 106 108 108 109 109 109 111 113 117 121 123 126 129
100 99 99 97 98 99 98 97 96 95 95 94 95 94 93 92 90 89 89 88 88 88 88 86 86 86 86 87 88 89 89 89 89 88 86 84 82 82 84 86 87 89 90 91 91 91 90 89 87 85 83 81 81 82 84 85 87 88 89 91 93 94 96 99 101 101 102 107 108 106 107 110 107 104 108 111 111 112 114 114 114 116 119 123 125 128 131 133
102 101 99 99 100 101 100 98 97 97 96 96 97 96 95 94 93 92 92 91 91 91 91 91 89 87 86 87 89 91 92 93 93 91 88 85 83 83 84 85 86 88 88 89 89 89 89 88 85 85 85 84 85 87 89 90 91 91 92 91 92 95 97 99 100 101 106 113 112 108 109 112 109 108 111 113 115 118 119 119 120 123 126 128 130 133 136 138
100 101 100 100 101 102 101 99 98 98 97 97 98 98 96 95 95 93 92 92 92 92 93 93 92 90 88 89 91 93 94 95 94 90 87 85 84 84 84 83 84 85 86 88 89 90 91 90 88 90 90 89 91 93 93 94 94 93 92 91 93 96 97 98 101 105 111 115 112 110 113 114 110 110 114 118 121 123 123 124 126 128 130 132 135 138 141 142
97 100 101 101 101 100 99 98 99 100 99 99 99 99 97 96 95 94 94 95 95 94 94 95 94 93 92 93 94 96 97 96 94 91 91 91 90 88 88 87 87 86 87 89 91 92 93 93 92 94 95 94 94 94 95 97 96 94 92 92 93 95 97 101 106 110 113 114 114 116 118 114 110 114 120 124 125 126 127 128 129 131 134 137 140 142 144 145
97 100 102 103 102 101 99 98 99 101 101 102 101 100 99 98 97 96 96 97 96 96 96 96 95 95 95 97 98 99 98 98 97 97 98 98 96 94 94 93 92 90 90 91 92 94 95 95 94 95 97 95 93 96 99 99 99 98 93 90 93 98 102 107 109 111 113 117 118 120 119 115 115 121 125 126 127 129 130 131 133 135 139 142 144 146 147 147
102 102 103 104 104 104 103 101 101 103 104 104 103 102 102 101 100 99 99 100 99 97 96 95 94 96 99 101 102 100 99 100 102 103 104 104 102 101 100 98 95 94 94 93 95 96 96 95 94 96 98 97 95 99 102 103 105 100 90 90 99 105 107 109 110 113 117 120 121 122 121 120 122 126 127 128 130 132 133 135 137 140 143 146 148 149 149 149
104 105 104 104 105 107 107 105 105 105 106 105 104 103 103 103 102 102 103 103 101 99 97 95 96 99 102 103 102 101 101 103 104 106 107 108 107 106 104 102 101 100 99 99 99 99 99 99 99 101 103 102 100 102 106 110 110 98 89 97 108 110 109 112 116 118 120 122 124 125 125 125 127 129 130 131 132 134 136 138 141 144 147 150 151 150 151 152
Wind_Direction
243 244 246 247 248 248 248 249 249 250 251 252 253 255 256 258 259 259 260 260 261 262 262 264 265 266 267 269 270 271 272 273 274 274 275 275 275 274 274 274 275 275 276 276 277 279 280 282 283 285 287 289 290 290 291 293 296 300 301 300 299 300 300 299 300 300 299 298 295 294 295 295 295 295 293 290 285 280 278 281 285 289 293 294 295 296 297 298
242 243 244 246 247 248 248 248 249 249 250 252 253 255 256 257 258 259 260 260 261 261 262 263 265 266 266 267 269 270 271 272 273 273 274 275 275 275 275 276 276 277 277 278 278 279 281 282 284 286 288 289 290 290 293 295 299 301 300 299 300 301 301 301 300 299 298 298 297 297 298 297 296 297 295 292 287 275 261 266 277 285 290 293 295 297 298 298
241 241 242 244 245 246 247 247 248 248 249 251 252 254 255 257 258 259 260 261 261 261 262 263 264 265 265 266 267 268 269 270 270 272 273 273 274 275 276 276 276 277 278 279 280 281 282 284 285 286 288 289 289 290 293 296 298 299 298 298 299 301 301 302 301 299 298 298 298 300 302 301 300 301 300 300 297 289 274 266 273 281 286 291 294 297 298 297
241 241 241 242 243 245 246 246 246 247 248 250 251 253 254 256 257 258 260 260 261 261 262 262 263 264 265 265 266 267 268 268 269 269 271 272 273 274 275 276 277 278 279 280 281 282 284 285 286 287 288 288 288 290 293 295 296 295 296 296 298 299 300 300 301 300 300 300 302 303 303 303 304 306 305 306 304 298 292 284 279 280 283 287 292 295 298 299
242 241 241 242 242 243 245 245 246 246 247 248 250 252 254 255 256 258 259 260 260 261 261 262 263 263 264 264 265 266 267 267 267 268 269 271 272 273 274 275 277 278 280 281 282 283 284 285 286 287 287 288 288 289 291 292 292 293 294 295 297 299 298 299 300 300 301 304 305 306 305 305 308 309 309 309 306 302 301 298 293 290 289 289 291 293 297 299
242 243 243 242 243 243 245 246 246 246 246 247 249 251 253 254 255 257 258 259 260 260 261 261 262 262 262 263 264 265 265 266 267 268 269 270 271 272 273 274 276 277 280 281 282 284 284 285 285 286 287 287 287 288 289 289 290 292 293 295 297 297 297 299 300 299 301 305 305 306 306 306 309 311 311 310 308 307 306 304 302 299 296 293 292 292 293 295
243 243 243 244 244 244 245 245 246 246 246 247 248 250 252 253 254 255 257 258 259 259 259 260 260 261 261 262 263 263 264 265 267 268 269 270 270 271 272 273 275 277 279 280 282 283 284 284 284 285 285 285 285 286 287 289 290 291 292 295 296 296 298 299 299 299 302 305 305 305 306 306 310 312 311 309 307 307 306 305 305 303 301 298 295 294 294 293
243 244 244 244 245 244 245 246 246 246 247 247 248 250 251 252 253 254 256 257 257 258 258 258 259 259 260 260 261 262 263 264 266 267 268 269 269 270 270 272 274 276 277 279 280 282 282 282 282 282 282 281 283 284 285 287 288 290 292 294 294 295 297 298 297 298 302 304 304 305 305 306 310 312 310 308 308 307 306 305 306 306 305 303 301 299 297 296
244 244 244 245 245 245 245 246 246 246 246 247 248 249 250 251 252 254 255 256 257 257 257 257 257 258 259 260 260 260 261 262 264 265 266 267 268 269 270 271 273 274 276 277 278 279 280 279 279 279 279 279 280 281 282 283 286 289 291 291 293 295 296 295 295 297 300 303 303 303 304 305 309 310 308 308 308 307 306 305 305 305 305 305 304 302 300 299
246 245 245 245 245 246 246 246 246 246 246 247 248 249 250 251 252 253 254 255 256 257 256 256 257 257 258 259 259 259 260 261 262 264 265 265 266 268 270 272 273 274 275 275 276 277 276 276 276 277 277 277 278 279 280 281 284 288 290 292 293 294 294 293 293 296 298 300 301 301 303 304 307 308 307 308 308 307 306 305 305 306 306 306 305 304 303 302
248 248 247 247 247 247 246 246 246 246 246 247 247 248 249 250 251 252 253 255 255 256 256 256 256 257 258 258 259 259 259 260 261 262 263 264 266 267 269 271 272 273 273 273 274 274 274 274 275 276 275 276 277 277 279 282 285 288 290 292 294 293 292 292 293 296 299 300 301 303 303 303 306 308 309 309 309 307 306 305 305 306 306 305 305 304 304 303
250 250 249 249 249 249 249 248 248 247 247 247 247 247 248 249 250 251 252 253 255 255 256 256 256 257 258 258 258 258 258 258 260 261 261 263 264 266 268 270 270 271 271 272 272 271 272 272 274 274 274 275 276 277 280 283 286 289 290 292 293 292 291 291 295 298 300 301 303 304 303 302 305 308 308 308 307 305 303 302 302 302 301 301 301 301 301 301
250 250 250 251 251 251 251 251 250 250 248 248 247 247 248 248 248 249 250 252 253 254 255 256 256 257 258 258 258 258 257 257 259 259 260 262 264 265 267 267 267 268 268 269 269 269 270 271 272 272 273 274 276 278 280 283 286 287 289 290 290 289 289 292 295 297 299 301 303 304 302 300 303 306 305 304 303 301 299 300 300 300 299 299 299 298 298 297
249 249 250 250 251 251 251 252 252 252 250 249 248 248 249 249 249 249 249 251 252 253 254 255 256 257 257 258 258 257 257 257 258 258 260 260 262 263 264 264 264 265 265 266 266 267 269 270 271 271 273 274 275 277 279 281 283 285 286 287 287 287 288 291 293 294 296 300 301 301 298 297 299 302 302 301 300 299 298 299 300 300 299 299 299 299 298 297
248 249 249 250 250 251 251 251 252 252 252 251 250 250 250 250 250 249 249 250 251 252 253 255 255 256 257 258 258 257 256 257 257 257 258 259 260 260 261 262 262 263 264 265 265 266 267 269 269 270 271 272 273 274 277 281 282 283 285 285 286 287 289 290 290 291 294 297 297 296 295 295 297 300 300 300 299 297 298 298 299 299 299 299 299 299 299 298
247 248 248 249 250 251 251 251 252 252 252 252 251 251 251 252 251 250 249 249 250 251 252 254 254 255 256 258 258 257 257 256 257 257 257 257 258 258 259 260 261 263 264 264 264 265 265 266 267 267 268 269 269 273 279 282 281 281 283 282 285 287 288 288 287 289 293 294 294 294 293 294 296 299 301 301 298 297 297 297 297 297 297 298 298 298 298 299
247 247 247 248 249 250 250 251 252 252 252 252 252 251 251 252 252 251 250 250 250 251 252 253 254 254 255 256 257 257 257 256 256 256 256 256 255 256 258 259 261 261 261 261 262 263 264 264 264 265 266 266 269 276 281 279 277 278 278 280 283 284 285 285 287 290 292 293 293 293 293 294 295 298 301 299 298 297 296 295 295 295 296 297 298 299 300 301
247 247 247 247 247 248 249 250 251 251 252 252 252 251 251 251 252 251 251 250 251 251 252 253 254 254 254 255 256 257 256 255 255 255 255 255 255 256 257 258 259 258 258 258 259 261 261 262 263 264 264 266 272 278 278 275 275 277 278 280 282 282 282 283 286 290 291 293 293 292 293 294 295 297 299 297 297 297 296 295 295 296 297 297 299 301 301 302
246 247 247 247 247 247 247 248 249 250 251 251 251 251 250 250 251 251 251 251 252 252 252 253 254 253 253 254 255 255 255 255 255 255 255 255 256 256 256 256 255 254 254 254 257 258 259 261 263 262 263 269 276 277 274 273 275 279 281 281 281 281 281 282 285 288 290 292 292 291 294 294 295 297 298 297 297 296 296 296 296 296 296 298 299 300 300 299
246 246 246 246 247 246 246 247 247 249 250 250 251 251 250 250 250 250 250 251 251 252 252 253 253 253 253 253 254 255 255 256 256 255 255 255 255 256 255 254 252 251 251 253 255 257 258 261 261 261 266 274 276 273 273 275 278 280 281 280 280 280 280 281 285 287 289 290 290 292 295 294 294 297 297 296 296 296 296 296 295 294 294 296 297 297 298 298
246 246 246 246 246 246 246 246 246 247 248 249 250 250 250 250 249 249 249 250 251 251 252 252 253 253 253 253 254 254 255 256 256 256 255 255 255 253 252 252 251 250 251 253 254 255 258 260 259 263 270 274 272 272 274 277 278 279 279 279 280 279 279 282 285 287 288 290 290 292 295 294 294 294 293 293 294 295 296 295 294 292 291 293 295 296 296 297
247 247 247 247 246 246 246 246 246 246 247 248 249 250 250 250 250 249 249 249 250 250 251 252 252 253 253 254 254 255 256 256 256 256 255 254 253 252 251 251 250 251 253 254 254 256 259 259 260 265 270 270 271 273 274 275 276 276 277 278 278 278 280 283 284 285 288 290 290 291 292 292 292 292 291 291 292 293 294 294 293 291 291 292 294 295 296 297
246 248 249 248 247 246 246 246 246 246 246 247 248 249 250 250 250 250 249 248 249 250 250 251 252 252 254 255 255 256 256 255 255 256 255 254 253 252 251 251 251 253 255 255 255 259 260 259 261 266 268 269 271 272 272 273 274 275 276 277 277 278 281 283 283 285 289 290 289 289 290 290 290 291 292 292 293 294 294 294 293 292 292 292 293 294 295 296
245 247 249 250 249 247 246 246 246 246 247 247 247 248 249 250 250 250 249 248 249 251 251 251 252 253 255 256 257 256 255 254 255 255 255 255 254 253 252 252 254 255 255 256 259 261 261 259 262 266 268 268 269 270 271 271 272 274 275 275 275 277 280 280 281 285 288 288 287 287 289 289 289 291 293 293 294 295 295 293 291 290 291 292 293 294 295 297
243 246 249 250 250 249 248 246 246 246 246 247 248 248 249 249 250 250 250 248 247 250 252 252 253 254 256 257 257 256 254 255 255 255 255 255 254 254 254 254 256 256 256 258 260 261 261 260 263 266 265 266 267 269 269 270 272 272 271 272 273 276 278 278 280 283 285 286 286 287 287 287 290 294 296 295 296 297 296 294 294 294 295 296 298 299 299 300
242 243 246 249 250 251 250 249 247 246 246 247 248 248 249 249 250 250 250 248 246 248 253 255 255 255 257 257 257 256 256 255 255 254 255 255 255 255 256 257 257 257 257 260 261 261 260 261 264 264 263 265 267 267 268 270 270 269 269 271 274 276 277 279 281 282 285 286 288 289 289 288 291 295 297 298 298 297 295 295 296 298 299 300 301 301 301 301
240 241 243 245 248 250 251 251 249 247 246 247 247 248 249 250 250 250 249 248 244 247 253 257 258 257 257 257 258 257 257 255 254 254 255 255 255 256 257 257 257 258 259 261 262 260 259 262 263 261 262 265 265 266 268 269 268 269 271 274 276 278 280 282 283 285 287 288 290 292 290 291 294 296 297 298 297 295 294 296 298 299 301 302 302 302 302 302
239 240 241 242 244 246 249 251 253 251 248 247 247 247 248 249 249 250 250 248 243 246 253 257 258 257 256 257 257 258 257 255 254 255 255 255 256 257 257 257 258 259 261 261 260 259 259 261 261 260 262 264 264 266 267 268 269 271 273 276 278 281 283 284 286 288 290 291 294 293 292 294 298 299 298 298 295 294 296 297 299 301 302 302 302 303 303 303
238 239 240 241 242 244 246 250 253 254 252 250 248 246 247 247 248 249 249 248 243 244 250 254 256 256 256 256 256 257 256 255 254 255 255 256 257 257 257 258 259 259 260 260 259 259 260 259 259 260 262 263 265 267 267 269 271 272 274 277 279 281 283 285 287 288 289 293 295 293 294 298 301 302 300 298 297 297 298 299 300 301 301 301 302 302 303 303
238 238 239 240 242 244 245 247 250 252 254 253 250 248 247 246 247 248 248 247 245 242 244 250 253 254 255 255 255 255 255 254 254 254 255 256 257 257 258 258 259 259 259 260 260 259 257 257 258 260 262 263 265 267 268 270 271 272 275 277 279 281 282 283 285 286 287 291 293 293 296 300 303 302 299 297 298 299 299 300 301 301 300 300 301 301 301 302
239 239 239 240 241 242 244 246 248 250 251 253 252 251 249 247 246 247 248 248 245 240 240 245 249 252 253 254 254 254 254 254 254 254 254 255 256 258 259 259 259 260 260 260 259 257 256 256 258 259 261 263 265 267 269 270 271 272 275 277 278 279 280 282 283 283 286 291 292 293 296 299 302 301 297 297 298 298 300 300 300 299 299 300 299 299 300 300
240 239 239 239 240 241 242 244 246 248 249 251 252 252 251 249 248 249 249 248 246 242 240 242 245 248 251 252 253 254 254 255 255 255 255 256 257 257 258 259 260 260 259 258 257 256 256 257 258 259 261 263 265 268 269 270 271 273 274 276 277 278 279 280 280 281 286 290 291 292 293 296 299 298 297 298 299 299 299 298 298 298 298 298 298 298 299 300
241 240 241 242 242 242 242 243 245 247 248 250 251 251 251 250 249 251 250 248 247 245 241 241 242 244 247 250 252 254 255 257 257 258 257 257 257 257 258 258 258 258 257 256 256 256 257 258 259 260 262 264 265 267 268 270 271 273 274 275 276 277 276 276 278 282 286 288 288 290 291 294 297 296 297 299 299 298 297 296 297 298 297 297 297 298 299 300
242 241 242 243 244 244 245 245 246 248 248 249 250 250 251 251 251 252 251 249 248 245 242 242 242 243 245 247 251 254 256 258 258 259 258 257 257 258 258 258 258 257 256 256 256 256 257 258 260 261 263 264 265 267 268 270 271 272 273 274 275 275 275 276 279 282 284 284 286 289 290 293 295 296 297 298 297 296 296 296 297 297 296 296 297 299 300 302
241 240 241 242 243 245 247 248 248 249 249 250 250 250 251 253 253 252 251 250 249 247 245 243 243 244 246 247 250 253 255 256 257 258 258 258 258 258 258 258 258 258 257 257 256 257 258 259 261 262 263 264 266 267 269 270 271 272 273 275 275 275 276 279 281 282 282 283 285 287 290 294 295 295 297 297 296 296 295 295 295 295 295 296 298 300 302 304
241 241 241 241 242 243 244 246 247 248 248 249 250 250 252 253 253 250 249 249 250 249 248 246 245 245 246 247 249 251 253 255 256 257 258 258 259 259 260 260 259 259 259 259 259 259 260 261 262 264 265 266 267 269 270 272 273 273 274 275 276 276 279 281 281 281 282 283 285 288 292 294 294 296 297 296 295 294 293 293 293 294 295 297 299 301 303 305
242 242 242 242 242 243 243 244 245 247 247 248 249 250 251 251 251 250 249 249 250 250 250 249 249 248 247 247 249 250 252 254 256 257 258 258 258 259 260 260 260 261 261 261 262 262 263 264 265 266 268 269 270 271 272 274 274 275 275 276 277 279 281 281 281 282 282 284 288 292 294 294 295 296 295 293 293 292 292 292 293 295 296 298 300 303 305 307
241 241 241 241 243 244 244 244 245 247 247 248 249 250 250 250 251 251 250 250 250 251 251 251 251 251 250 250 250 251 252 254 255 256 257 258 258 259 260 261 261 261 261 262 262 263 264 265 266 268 269 270 271 272 274 275 275 275 275 277 278 280 281 282 282 283 284 287 291 293 293 293 294 293 292 292 292 292 292 293 294 295 297 300 302 305 307 308
242 241 240 240 242 243 243 244 245 247 247 248 249 251 250 250 251 251 251 251 250 251 252 253 253 253 253 253 252 252 253 254 255 256 256 257 258 259 260 261 262 262 261 262 262 263 264 265 267 268 269 270 272 273 274 273 274 275 276 278 279 280 281 282 283 285 288 290 292 291 290 290 291 291 292 293 292 291 292 293 294 296 299 302 304 306 307 308
242 242 241 239 241 242 243 244 245 246 247 248 250 251 250 250 251 252 253 253 252 252 253 253 255 255 255 255 255 255 255 255 255 256 256 257 258 259 259 261 261 261 262 262 263 264 265 266 266 267 269 270 272 272 272 272 274 276 278 279 280 281 281 282 285 288 290 291 291 290 288 289 291 292 292 292 291 291 292 293 296 299 301 303 305 306 308 310
242 243 242 240 240 241 242 244 245 246 248 249 250 250 249 249 250 251 252 253 253 253 253 253 255 256 257 257 257 257 257 257 256 257 257 258 258 259 259 260 261 262 263 263 264 264 265 265 266 267 269 270 270 271 272 274 276 277 278 279 280 281 282 285 288 289 290 289 290 289 289 291 294 293 292 292 291 292 293 295 298 300 302 304 306 308 310 312
242 243 242 241 241 241 242 244 245 246 248 249 249 249 249 248 249 250 252 253 254 254 255 255 256 258 259 259 259 259 258 258 257 257 257 258 259 260 260 261 262 263 263 263 264 264 265 265 266 267 268 268 270 272 274 275 276 277 278 279 280 282 285 287 288 288 288 288 290 291 292 295 296 294 293 294 294 295 297 299 300 301 303 306 308 310 312 313
242 243 243 242 242 242 243 244 245 246 247 248 248 249 249 248 249 250 252 254 256 257 257 258 258 259 260 260 260 260 260 259 258 258 258 258 258 260 260 261 262 262 263 263 264 264 265 265 266 266 267 268 271 273 275 276 277 277 278 280 282 285 286 286 287 288 288 290 293 294 295 297 297 295 295 296 298 301 303 303 303 305 306 308 310 312 312 312
243 244 244 244 243 243 244 245 245 246 247 248 249 250 250 251 251 252 254 256 258 259 259 259 259 259 260 260 260 260 261 261 261 261 260 260 260 260 260 260 260 261 262 263 263 264 265 266 266 267 268 270 273 274 276 276 276 277 280 282 284 284 285 286 287 289 290 293 295 295 297 298 297 297 298 300 303 305 305 305 306 308 310 311 312 311 311 311
243 243 243 244 244 244 244 245 246 246 247 248 249 251 252 254 254 255 255 257 258 260 260 260 260 260 260 260 260 260 261 262 262 262 262 263 263 263 262 261 261 261 261 262 263 264 265 266 267 269 271 273 275 275 276 277 278 279 281 282 282 284 286 287 289 291 294 296 295 296 298 298 298 301 303 304 305 306 305 306 308 310 312 312 311 310 311 311
243 244 244 244 244 245 246 247 248 248 249 250 252 253 254 255 256 257 257 258 259 260 261 261 261 261 261 261 261 261 262 262 262 262 262 263 264 265 265 263 262 262 262 263 264 265 266 268 269 271 273 275 276 277 277 277 278 279 280 280 283 285 287 289 291 295 296 296 295 297 298 298 300 304 305 306 307 306 306 308 311 312 312 311 310 310 311 310
243 244 244 245 245 246 247 248 249 250 251 252 253 254 255 256 257 257 258 259 260 261 262 263 263 263 264 264 263 262 262 262 262 262 262 263 264 265 265 264 263 262 262 263 264 265 267 269 271 273 274 275 276 275 275 275 276 277 279 281 284 287 289 292 295 296 296 295 295 297 298 299 303 306 307 307 307 306 308 311 311 311 310 310 310 310 309 308
245 244 244 245 246 247 247 248 249 250 251 252 252 253 253 254 256 257 258 259 260 262 263 264 266 266 267 266 265 264 263 263 264 265 265 265 264 263 263 263 263 264 264 265 265 266 268 270 272 273 273 274 274 274 274 276 277 278 281 284 287 289 292 295 296 296 295 295 297 300 300 302 306 308 307 306 306 307 310 310 309 309 309 309 309 308 308 308
246 246 245 245 246 247 248 249 249 250 251 251 252 253 253 254 256 257 258 259 260 261 263 265 267 268 268 266 265 265 266 267 268 269 269 268 266 265 265 265 266 266 266 267 267 268 269 270 271 272 273 273 274 276 278 279 281 282 284 287 291 294 296 296 295 295 295 297 300 302 302 305 309 308 305 305 306 308 308 307 307 307 307 307 307 307 307 308
244 247 247 246 246 247 248 248 249 250 250 251 251 253 254 255 256 257 258 259 260 261 263 264 265 265 265 264 264 265 268 270 271 271 270 270 269 268 268 268 268 268 268 269 270 271 271 271 272 273 275 276 277 280 282 283 285 285 287 292 296 297 296 295 295 297 299 301 302 302 304 308 308 305 304 305 306 305 305 305 306 306 306 306 306 306 307 307
241 244 247 248 248 247 247 248 249 249 250 250 251 252 253 254 256 257 258 259 260 261 262 263 264 264 263 264 265 267 269 270 271 271 271 271 271 270 270 270 271 272 273 273 274 275 276 276 276 278 279 280 281 283 285 287 287 287 292 298 298 296 295 297 298 300 301 301 302 303 306 307 305 303 303 304 303 303 304 304 304 304 305 305 305 306 307 307
240 242 245 247 249 249 248 248 248 250 251 251 252 252 253 254 256 257 258 259 260 261 262 263 264 264 265 266 267 269 270 270 271 271 272 272 272 272 273 274 275 276 277 278 279 280 281 282 283 284 284 285 286 287 289 289 289 292 298 299 296 296 299 301 301 301 301 301 302 304 305 304 302 302 302 302 302 302 302 303 303 304 304 304 305 306 306 307
Height
10775 10777 10778 10779 10781 10782 10783 10784 10785 10785 10786 10787 10787 10788 10788 10789 10789 10789 10790 10790 10790 10791 10791 10792 10792 10793 10793 10793 10793 10794 10794 10794 10795 10795 10795 10796 10796 10796 10796 10795 10795 10795 10795 10795 10795 10795 10794 10794 10794 10793 10793 10793 10793 10792 10793 10793 10793 10793 10792 10792 10791 10791 10791 10791 10791 10791 10791 10791 10791 10792 10792 10792 10793 10795 10796 10797 10798 10798 10796 10793 10790 10789 10787 10787 10788 10789 10791 10792
10771 10773 10774 10776 10777 10778 10779 10780 10781 10782 10783 10784 10784 10785 10785 10785 10786 10786 10787 10787 10787 10788 10788 10789 10789 10790 10790 10791 10791 10791 10792 10792 10792 10793 10793 10793 10793 10793 10794 10793 10793 10793 10793 10793 10793 10793 10793 10792 10792 10792 10792 10791 10791 10790 10791 10791 10791 10791 10791 10790 10790 10790 10790 10790 10790 10790 10790 10790 10790 10791 10791 10791 10792 10793 10794 10795 10796 10796 10795 10793 10791 10789 10787 10786 10786 10787 10789 10790
10767 10769 10770 10772 10773 10774 10775 10777 10778 10779 10780 10780 10781 10781 10782 10782 10783 10783 10784 10784 10784 10785 10786 10786 10787 10787 10787 10788 10788 10789 10789 10790 10790 10790 10791 10791 10791 10791 10791 10791 10791 10791 10791 10791 10791 10791 10791 10791 10791 10790 10790 10790 10789 10789 10789 10790 10790 10790 10789 10789 10789 10788 10788 10788 10788 10788 10789 10789 10789 10790 10790 10790 10791 10791 10792 10793 10793 10793 10793 10793 10792 10789 10787 10786 10785 10785 10786 10787
10763 10765 10766 10767 10769 10770 10771 10773 10774 10775 10776 10776 10777 10778 10778 10779 10779 10780 10780 10781 10781 10782 10783 10783 10784 10784 10785 10785 10786 10786 10787 10787 10787 10788 10789 10789 10789 10789 10789 10789 10788 10788 10789 10789 10789 10790 10789 10789 10789 10789 10789 10788 10787 10787 10788 10788 10788 10788 10788 10788 10788 10787 10786 10786 10786 10786 10787 10788 10788 10789 10789 10789 10790 10790 10790 10791 10791 10789 10790 10791 10791 10789 10788 10787 10785 10784 10783 10784
10759 10761 10762 10763 10764 10766 10767 10769 10770 10771 10772 10773 10773 10774 10775 10775 10776 10776 10777 10777 10778 10778 10779 10780 10781 10781 10782 10782 10783 10783 10784 10784 10785 10786 10786 10786 10786 10787 10787 10786 10786 10786 10786 10786 10787 10787 10788 10787 10787 10787 10787 10787 10786 10786 10786 10787 10787 10787 10787 10786 10787 10786 10785 10785 10785 10785 10785 10786 10787 10788 10788 10788 10789 10789 10789 10788 10787 10786 10786 10787 10788 10788 10788 10787 10786 10784 10783 10781
10755 10756 10758 10759 10760 10762 10763 10764 10765 10767 10768 10769 10769 10770 10771 10772 10772 10773 10773 10774 10774 10775 10776 10777 10777 10778 10778 10779 10780 10781 10781 10781 10782 10783 10783 10784 10784 10784 10784 10784 10784 10783 10783 10784 10784 10785 10785 10785 10786 10786 10785 10785 10785 10784 10784 10785 10785 10785 10785 10785 10785 10785 10784 10783 10783 10783 10783 10784 10784 10785 10786 10786 10788 10788 10787 10786 10784 10784 10783 10783 10784 10785 10786 10786 10785 10784 10783 10781
10751 10752 10754 10755 10756 10758 10759 10760 10762 10763 10764 10765 10766 10767 10767 10768 10769 10769 10770 10770 10771 10772 10773 10774 10774 10774 10775 10776 10777 10778 10779 10778 10779 10780 10780 10781 10781 10781 10781 10781 10781 10781 10781 10781 10781 10782 10783 10783 10783 10784 10783 10783 10783 10782 10782 10782 10782 10783 10783 10783 10782 10783 10783 10782 10781 10780 10781 10782 10782 10783 10783 10784 10786 10787 10786 10784 10783 10782 10781 10780 10780 10781 10782 10782 10782 10782 10781 10781
10746 10748 10749 10751 10752 10754 10755 10756 10758 10759 10760 10761 10762 10763 10764 10764 10765 10765 10766 10766 10767 10768 10769 10770 10770 10771 10772 10773 10774 10775 10776 10776 10776 10777 10777 10778 10778 10778 10778 10778 10778 10778 10778 10779 10779 10780 10780 10781 10781 10781 10781 10781 10781 10780 10780 10780 10780 10780 10781 10781 10780 10780 10781 10781 10780 10779 10779 10779 10779 10779 10780 10781 10783 10785 10784 10783 10782 10780 10779 10778 10778 10777 10777 10778 10778 10778 10777 10777
10741 10743 10745 10746 10748 10749 10751 10752 10754 10755 10756 10757 10758 10759 10760 10761 10761 10762 10762 10763 10763 10764 10766 10766 10767 10768 10768 10770 10770 10772 10773 10773 10773 10774 10774 10775 10775 10775 10775 10775 10776 10776 10776 10776 10776 10777 10777 10778 10778 10779 10779 10778 10779 10778 10778 10777 10777 10778 10778 10778 10778 10778 10778 10778 10778 10778 10777 10778 10777 10777 10778 10779 10781 10783 10782 10781 10780 10778 10777 10776 10776 10775 10774 10774 10774 10774 10774 10774
10737 10738 10740 10742 10743 10745 10746 10748 10750 10751 10752 10753 10754 10755 10756 10757 10757 10758 10759 10759 10760 10761 10762 10763 10764 10764 10765 10766 10766 10768 10770 10770 10770 10771 10771 10772 10772 10772 10772 10772 10773 10773 10773 10774 10774 10774 10775 10775 10775 10776 10776 10775 10776 10776 10775 10775 10775 10775 10775 10775 10776 10775 10775 10775 10775 10776 10776 10776 10775 10775 10775 10776 10779 10780 10779 10779 10778 10776 10774 10773 10773 10773 10772 10771 10770 10770 10770 10770
10733 10734 10736 10737 10739 10741 10742 10744 10745 10747 10748 10749 10750 10751 10752 10753 10753 10754 10755 10755 10756 10757 10758 10759 10760 10761 10762 10762 10762 10765 10767 10766 10767 10768 10768 10768 10769 10769 10769 10770 10770 10770 10770 10771 10771 10772 10772 10772 10772 10773 10773 10772 10773 10773 10773 10773 10773 10773 10772 10772 10772 10772 10772 10772 10771 10773 10774 10773 10773 10772 10771 10772 10775 10776 10775 10775 10774 10773 10771 10770 10770 10770 10769 10768 10767 10766 10765 10765
10728 10730 10731 10733 10735 10736 10738 10740 10741 10742 10744 10745 10746 10747 10747 10748 10749 10750 10751 10752 10753 10754 10755 10755 10756 10757 10758 10758 10758 10761 10763 10763 10763 10764 10765 10765 10765 10766 10766 10767 10767 10767 10767 10768 10768 10769 10769 10769 10769 10769 10769 10769 10769 10770 10770 10770 10770 10770 10769 10769 10769 10768 10768 10768 10768 10769 10770 10770 10770 10768 10766 10766 10771 10773 10772 10771 10770 10769 10768 10767 10766 10766 10765 10765 10764 10763 10762 10761
10724 10725 10727 10729 10731 10732 10734 10735 10737 10738 10739 10741 10742 10742 10743 10743 10744 10745 10747 10748 10749 10750 10751 10752 10753 10754 10754 10753 10754 10757 10758 10759 10760 10761 10761 10762 10762 10762 10763 10764 10764 10764 10764 10765 10765 10766 10766 10766 10766 10766 10765 10765 10766 10767 10767 10767 10768 10767 10767 10766 10766 10765 10764 10765 10766 10766 10767 10767 10767 10766 10762 10760 10765 10769 10768 10767 10766 10765 10764 10763 10762 10762 10761 10761 10761 10760 10759 10758
10719 10721 10722 10724 10726 10728 10730 10731 10733 10734 10735 10736 10737 10737 10738 10739 10740 10741 10743 10744 10745 10746 10747 10748 10748 10750 10750 10749 10750 10753 10754 10755 10756 10757 10758 10758 10759 10759 10759 10760 10760 10761 10761 10762 10762 10762 10763 10763 10763 10762 10762 10762 10762 10763 10764 10765 10765 10765 10765 10764 10763 10761 10760 10762 10763 10763 10764 10765 10764 10764 10760 10755 10759 10765 10765 10764 10762 10760 10759 10759 10758 10757 10756 10756 10756 10755 10755 10754
10713 10716 10717 10719 10721 10723 10725 10726 10728 10729 10730 10732 10732 10733 10734 10735 10736 10737 10739 10739 10740 10742 10743 10744 10744 10746 10746 10745 10746 10749 10750 10751 10753 10753 10754 10755 10755 10755 10756 10756 10756 10757 10758 10758 10758 10759 10759 10759 10759 10759 10759 10759 10759 10760 10761 10762 10762 10762 10763 10761 10760 10758 10757 10758 10760 10761 10762 10763 10762 10761 10758 10752 10753 10759 10761 10760 10758 10756 10755 10755 10754 10752 10751 10751 10751 10750 10750 10749
10708 10710 10712 10714 10716 10717 10719 10721 10723 10724 10725 10727 10728 10728 10729 10731 10732 10733 10734 10735 10736 10737 10738 10740 10740 10742 10742 10741 10742 10744 10746 10748 10748 10749 10751 10751 10751 10751 10752 10752 10753 10754 10754 10754 10755 10755 10756 10756 10756 10756 10755 10755 10756 10757 10759 10760 10759 10759 10760 10759 10757 10756 10754 10752 10754 10758 10759 10760 10759 10757 10756 10752 10749 10752 10755 10755 10753 10752 10751 10751 10750 10749 10747 10747 10746 10746 10745 10744
10702 10704 10706 10708 10710 10712 10714 10716 10717 10719 10720 10722 10723 10723 10725 10726 10727 10729 10730 10730 10732 10733 10734 10735 10736 10738 10738 10737 10738 10739 10742 10744 10744 10745 10746 10747 10747 10747 10748 10749 10749 10750 10750 10750 10751 10752 10753 10753 10753 10752 10752 10751 10752 10755 10757 10756 10755 10756 10757 10756 10756 10754 10752 10748 10748 10754 10756 10755 10755 10753 10752 10749 10747 10749 10750 10749 10748 10747 10747 10747 10746 10745 10744 10743 10742 10741 10740 10740
10697 10698 10700 10702 10704 10706 10708 10710 10711 10713 10714 10716 10717 10718 10720 10721 10722 10724 10725 10726 10728 10728 10730 10731 10732 10734 10734 10733 10734 10735 10738 10739 10740 10742 10742 10742 10743 10743 10744 10745 10745 10746 10746 10747 10747 10748 10750 10750 10749 10748 10746 10747 10750 10753 10754 10752 10751 10752 10753 10753 10753 10751 10749 10745 10745 10749 10751 10751 10750 10749 10748 10746 10743 10745 10747 10744 10743 10743 10742 10742 10742 10741 10740 10739 10738 10737 10736 10735
10691 10692 10694 10696 10698 10700 10703 10704 10705 10706 10708 10710 10711 10712 10714 10715 10717 10719 10720 10722 10723 10724 10726 10727 10728 10730 10729 10730 10730 10731 10733 10735 10736 10737 10737 10738 10738 10739 10740 10741 10742 10742 10742 10743 10744 10745 10746 10746 10746 10743 10741 10744 10748 10750 10749 10748 10747 10748 10749 10749 10749 10747 10745 10742 10742 10745 10746 10747 10745 10744 10745 10743 10739 10741 10742 10740 10739 10739 10738 10738 10737 10736 10735 10734 10733 10732 10731 10730
10685 10686 10688 10690 10692 10695 10697 10698 10699 10700 10702 10704 10705 10706 10708 10709 10711 10713 10715 10717 10718 10719 10722 10723 10724 10725 10725 10725 10726 10728 10729 10730 10732 10732 10733 10733 10734 10736 10736 10736 10737 10738 10738 10739 10741 10741 10742 10743 10741 10736 10737 10743 10745 10745 10744 10744 10744 10744 10744 10744 10744 10743 10740 10738 10740 10741 10742 10743 10741 10739 10741 10739 10737 10737 10737 10736 10735 10735 10734 10734 10734 10732 10730 10729 10728 10727 10725 10724
10679 10681 10683 10684 10687 10689 10691 10692 10693 10694 10696 10698 10699 10701 10702 10703 10706 10708 10709 10711 10713 10715 10717 10718 10720 10721 10720 10721 10723 10724 10725 10726 10727 10727 10728 10729 10730 10731 10731 10732 10733 10733 10734 10736 10737 10737 10738 10740 10734 10731 10736 10740 10740 10740 10739 10740 10740 10740 10740 10740 10739 10738 10736 10735 10736 10738 10738 10740 10739 10737 10737 10735 10733 10734 10733 10732 10732 10731 10731 10730 10729 10727 10725 10724 10723 10722 10720 10719
10673 10675 10677 10679 10681 10683 10685 10686 10687 10688 10690 10692 10693 10695 10695 10697 10700 10702 10703 10706 10708 10710 10712 10714 10716 10716 10715 10718 10720 10720 10722 10722 10721 10722 10723 10724 10725 10726 10727 10728 10728 10728 10730 10732 10732 10732 10735 10735 10728 10729 10734 10735 10734 10735 10735 10736 10736 10735 10735 10736 10735 10733 10733 10733 10732 10733 10735 10736 10736 10735 10734 10732 10730 10729 10728 10728 10728 10727 10727 10726 10724 10722 10720 10719 10718 10717 10716 10714
10667 10669 10671 10673 10676 10678 10679 10680 10681 10682 10683 10686 10687 10688 10689 10691 10693 10695 10698 10702 10703 10705 10708 10709 10711 10711 10710 10713 10715 10716 10718 10717 10716 10717 10717 10719 10720 10721 10723 10723 10723 10725 10727 10726 10726 10729 10732 10729 10724 10726 10730 10730 10730 10731 10731 10731 10731 10731 10731 10731 10730 10728 10730 10730 10729 10730 10731 10732 10732 10732 10732 10730 10725 10725 10725 10724 10724 10723 10722 10721 10719 10717 10715 10714 10712 10711 10710 10709
10662 10663 10665 10667 10670 10672 10673 10674 10675 10676 10677 10679 10680 10681 10683 10685 10687 10688 10691 10696 10700 10700 10702 10705 10706 10707 10706 10709 10711 10712 10712 10712 10712 10712 10710 10713 10714 10716 10719 10718 10719 10722 10721 10720 10723 10727 10728 10722 10720 10722 10725 10725 10726 10726 10726 10726 10727 10727 10726 10726 10726 10725 10726 10727 10725 10726 10728 10728 10728 10728 10730 10727 10721 10721 10721 10719 10719 10718 10717 10715 10712 10711 10710 10708 10706 10704 10704 10703
10655 10657 10659 10661 10664 10666 10667 10669 10670 10669 10671 10673 10673 10675 10677 10679 10680 10682 10684 10690 10698 10697 10695 10700 10703 10703 10703 10704 10706 10706 10707 10708 10708 10705 10705 10707 10709 10711 10713 10713 10716 10717 10715 10716 10720 10724 10722 10716 10716 10719 10719 10721 10721 10720 10720 10721 10723 10723 10721 10721 10722 10722 10722 10722 10722 10723 10724 10724 10723 10723 10726 10725 10720 10717 10716 10714 10714 10712 10709 10706 10704 10704 10703 10701 10700 10698 10697 10695
10648 10651 10653 10654 10658 10660 10662 10664 10662 10661 10665 10666 10667 10669 10671 10673 10673 10676 10677 10683 10695 10696 10690 10694 10698 10700 10700 10698 10699 10698 10702 10705 10701 10699 10700 10702 10703 10706 10708 10709 10711 10710 10709 10711 10716 10719 10715 10709 10712 10715 10714 10715 10716 10714 10714 10717 10719 10717 10715 10716 10718 10718 10717 10718 10718 10719 10720 10720 10719 10718 10718 10721 10721 10716 10711 10708 10707 10704 10701 10699 10698 10697 10696 10695 10693 10691 10689 10687
10642 10644 10646 10648 10652 10653 10657 10657 10654 10656 10659 10658 10660 10662 10665 10667 10666 10669 10668 10675 10692 10696 10688 10689 10692 10696 10695 10692 10693 10692 10696 10699 10694 10693 10695 10696 10698 10701 10703 10705 10705 10704 10705 10707 10711 10713 10708 10704 10708 10710 10709 10710 10709 10709 10710 10712 10713 10711 10710 10711 10712 10713 10713 10713 10713 10714 10715 10715 10715 10713 10710 10715 10720 10715 10709 10706 10701 10695 10693 10692 10691 10689 10688 10687 10686 10683 10682 10680
10635 10637 10639 10642 10645 10647 10650 10650 10649 10651 10651 10651 10654 10655 10657 10658 10659 10661 10660 10670 10691 10695 10688 10685 10685 10688 10689 10687 10687 10686 10689 10691 10687 10688 10689 10690 10694 10695 10697 10699 10699 10699 10700 10702 10705 10704 10702 10701 10702 10703 10704 10703 10703 10704 10706 10706 10706 10705 10704 10705 10706 10707 10707 10707 10707 10708 10709 10710 10711 10707 10702 10709 10716 10712 10706 10702 10696 10689 10687 10685 10683 10682 10680 10679 10677 10675 10673 10671
10628 10630 10633 10635 10638 10642 10644 10645 10644 10642 10643 10645 10645 10647 10649 10650 10652 10653 10652 10667 10689 10692 10686 10681 10678 10679 10680 10680 10681 10679 10680 10682 10682 10683 10684 10686 10689 10690 10691 10693 10694 10695 10695 10697 10698 10697 10697 10696 10696 10697 10698 10697 10698 10699 10699 10699 10700 10699 10698 10699 10700 10701 10701 10701 10702 10701 10702 10705 10706 10700 10696 10702 10710 10709 10701 10696 10691 10686 10683 10680 10678 10676 10673 10671 10669 10667 10665 10663
10621 10623 10626 10628 10633 10637 10637 10638 10636 10634 10636 10637 10637 10639 10641 10643 10645 10642 10648 10669 10684 10683 10680 10676 10673 10672 10671 10672 10672 10671 10672 10673 10675 10678 10680 10681 10682 10684 10686 10687 10688 10689 10690 10691 10691 10690 10691 10690 10690 10691 10691 10691 10692 10692 10692 10693 10693 10693 10692 10693 10693 10694 10695 10694 10695 10693 10695 10699 10699 10694 10692 10694 10702 10703 10694 10688 10686 10682 10678 10675 10673 10670 10668 10666 10664 10661 10658 10655
10615 10617 10618 10622 10626 10628 10630 10631 10629 10627 10628 10629 10630 10631 10633 10636 10635 10634 10652 10669 10670 10671 10674 10671 10668 10665 10663 10663 10662 10662 10664 10665 10669 10672 10675 10676 10677 10679 10680 10681 10682 10683 10685 10686 10683 10682 10684 10684 10685 10685 10685 10685 10684 10685 10685 10686 10686 10686 10686 10686 10686 10687 10687 10687 10687 10685 10687 10693 10692 10689 10688 10689 10693 10692 10685 10681 10679 10676 10673 10669 10665 10662 10661 10659 10657 10655 10651 10647
10608 10609 10610 10614 10617 10620 10624 10625 10621 10619 10621 10623 10623 10624 10626 10626 10626 10638 10657 10660 10656 10664 10669 10664 10661 10658 10655 10655 10654 10655 10657 10659 10663 10667 10669 10672 10673 10674 10674 10675 10676 10676 10678 10678 10675 10676 10679 10678 10678 10678 10678 10678 10677 10678 10678 10678 10679 10680 10679 10679 10678 10679 10679 10679 10678 10677 10681 10685 10684 10683 10682 10685 10687 10681 10674 10671 10669 10667 10663 10659 10656 10654 10652 10650 10647 10645 10641 10638
10600 10600 10603 10608 10611 10614 10617 10616 10612 10612 10616 10616 10615 10616 10615 10614 10626 10644 10651 10647 10649 10657 10658 10654 10654 10651 10648 10648 10648 10649 10651 10654 10658 10661 10664 10666 10667 10668 10668 10669 10669 10669 10671 10671 10669 10671 10672 10671 10671 10671 10671 10671 10671 10671 10670 10671 10672 10672 10672 10671 10671 10670 10668 10670 10670 10671 10675 10676 10675 10676 10675 10679 10681 10674 10667 10663 10659 10657 10652 10647 10645 10645 10642 10639 10635 10632 10629 10627
10591 10593 10597 10601 10605 10607 10610 10609 10606 10607 10609 10607 10607 10607 10602 10609 10631 10643 10639 10639 10642 10644 10645 10645 10644 10643 10643 10644 10645 10646 10647 10649 10651 10654 10657 10659 10660 10661 10661 10661 10662 10663 10664 10664 10663 10664 10665 10665 10664 10664 10665 10664 10664 10663 10662 10664 10664 10665 10664 10663 10664 10660 10656 10660 10663 10665 10667 10667 10668 10669 10667 10670 10671 10666 10661 10657 10651 10646 10642 10638 10635 10633 10630 10626 10623 10620 10617 10614
10582 10586 10590 10594 10598 10602 10605 10603 10600 10599 10599 10598 10597 10594 10595 10613 10632 10633 10629 10630 10630 10631 10635 10636 10636 10637 10639 10641 10642 10642 10641 10642 10644 10646 10649 10652 10654 10655 10655 10655 10656 10656 10656 10656 10656 10656 10658 10659 10657 10657 10658 10657 10657 10656 10656 10656 10657 10657 10656 10655 10654 10650 10646 10651 10655 10656 10655 10657 10662 10662 10660 10662 10661 10658 10655 10649 10642 10637 10632 10629 10625 10621 10619 10614 10611 10608 10605 10602
10574 10579 10582 10588 10594 10597 10596 10595 10591 10588 10588 10589 10584 10584 10599 10617 10621 10620 10621 10621 10619 10623 10625 10625 10629 10631 10632 10635 10636 10636 10635 10634 10637 10640 10644 10646 10647 10649 10649 10647 10647 10648 10648 10647 10648 10650 10652 10652 10650 10649 10650 10650 10650 10649 10648 10648 10648 10648 10647 10646 10643 10640 10640 10641 10643 10645 10643 10644 10653 10656 10654 10654 10652 10651 10649 10639 10632 10627 10622 10619 10615 10611 10608 10604 10600 10597 10594 10591
10567 10572 10575 10583 10588 10588 10587 10586 10581 10576 10578 10578 10573 10581 10601 10609 10607 10609 10613 10613 10613 10615 10615 10617 10621 10622 10624 10628 10629 10629 10628 10628 10632 10635 10638 10639 10640 10643 10641 10638 10639 10640 10639 10638 10640 10643 10644 10643 10643 10641 10641 10641 10641 10640 10640 10640 10638 10637 10637 10636 10634 10633 10633 10631 10629 10633 10632 10631 10641 10647 10647 10647 10644 10643 10640 10632 10625 10618 10610 10607 10604 10600 10597 10593 10590 10586 10582 10579
10559 10561 10567 10578 10580 10579 10579 10577 10572 10568 10568 10565 10563 10579 10597 10599 10598 10602 10604 10605 10606 10606 10607 10611 10612 10611 10614 10619 10622 10621 10620 10623 10627 10628 10630 10631 10633 10636 10633 10630 10631 10631 10629 10629 10631 10634 10634 10634 10635 10634 10633 10632 10631 10632 10633 10631 10627 10626 10627 10627 10626 10624 10623 10619 10617 10620 10621 10620 10628 10635 10638 10641 10638 10632 10628 10624 10617 10607 10598 10596 10593 10589 10587 10582 10578 10574 10569 10565
10549 10549 10560 10572 10570 10568 10570 10568 10564 10560 10556 10552 10557 10576 10589 10589 10590 10592 10593 10596 10598 10598 10601 10605 10603 10602 10606 10611 10613 10612 10613 10617 10620 10620 10622 10623 10626 10628 10625 10622 10622 10621 10620 10620 10622 10625 10625 10625 10627 10627 10624 10623 10624 10625 10623 10620 10616 10617 10619 10619 10618 10615 10611 10608 10606 10610 10611 10608 10611 10618 10626 10635 10633 10622 10616 10612 10605 10597 10589 10585 10581 10577 10574 10569 10564 10560 10556 10552
10537 10538 10554 10563 10557 10557 10561 10557 10552 10547 10543 10546 10555 10570 10579 10579 10581 10584 10585 10588 10590 10591 10596 10598 10594 10593 10597 10601 10602 10604 10606 10609 10611 10612 10614 10616 10617 10619 10617 10614 10612 10610 10610 10611 10614 10616 10615 10615 10617 10617 10616 10617 10618 10615 10611 10610 10609 10610 10611 10611 10610 10605 10599 10597 10599 10604 10601 10594 10596 10598 10606 10624 10626 10612 10604 10598 10591 10586 10581 10576 10570 10564 10560 10555 10550 10547 10543 10539
10526 10527 10544 10553 10547 10547 10549 10541 10538 10538 10538 10543 10552 10562 10567 10569 10573 10575 10576 10578 10579 10583 10587 10588 10586 10585 10588 10591 10593 10595 10596 10598 10602 10603 10605 10608 10608 10609 10608 10605 10603 10602 10601 10602 10605 10605 10604 10605 10606 10608 10609 10609 10607 10605 10603 10603 10603 10602 10602 10602 10599 10594 10591 10589 10591 10596 10591 10582 10584 10579 10583 10608 10615 10598 10588 10583 10576 10572 10570 10565 10559 10552 10547 10542 10537 10533 10530 10525
10514 10517 10533 10540 10536 10537 10535 10529 10530 10532 10532 10538 10546 10550 10554 10559 10563 10565 10566 10567 10570 10574 10578 10580 10580 10579 10580 10583 10583 10584 10585 10587 10591 10593 10596 10599 10599 10598 10598 10596 10595 10594 10592 10592 10594 10593 10592 10593 10597 10600 10600 10598 10596 10597 10598 10596 10595 10594 10593 10593 10589 10586 10586 10580 10578 10584 10580 10574 10576 10564 10563 10590 10597 10579 10570 10565 10559 10556 10554 10549 10544 10539 10535 10529 10525 10521 10516 10512
10504 10512 10522 10525 10526 10527 10523 10518 10521 10524 10525 10532 10538 10538 10541 10549 10555 10556 10558 10559 10561 10566 10570 10572 10573 10572 10572 10573 10572 10572 10573 10575 10579 10583 10586 10589 10589 10588 10587 10587 10586 10584 10582 10583 10583 10581 10580 10582 10587 10589 10589 10589 10589 10591 10591 10589 10585 10583 10583 10585 10583 10580 10578 10572 10568 10569 10565 10566 10566 10550 10549 10572 10574 10560 10555 10549 10541 10538 10534 10530 10527 10524 10521 10517 10512 10508 10503 10499
10498 10504 10509 10513 10517 10516 10510 10507 10513 10518 10522 10527 10528 10528 10532 10539 10545 10549 10552 10552 10551 10555 10559 10562 10564 10564 10563 10563 10562 10562 10563 10563 10568 10573 10576 10579 10580 10579 10577 10576 10575 10574 10573 10572 10572 10570 10569 10571 10575 10577 10578 10582 10584 10583 10583 10580 10575 10574 10577 10578 10575 10572 10568 10563 10560 10555 10551 10556 10553 10536 10537 10550 10548 10542 10541 10533 10525 10520 10514 10511 10511 10509 10506 10503 10498 10494 10491 10487
10489 10492 10496 10502 10504 10501 10499 10502 10508 10512 10515 10517 10519 10521 10524 10529 10535 10541 10543 10543 10542 10544 10547 10551 10553 10554 10553 10553 10554 10554 10554 10555 10557 10561 10564 10568 10569 10568 10566 10565 10565 10564 10562 10561 10560 10559 10558 10560 10564 10567 10570 10574 10575 10573 10572 10570 10567 10567 10571 10570 10565 10563 10559 10553 10549 10544 10541 10540 10534 10529 10528 10525 10524 10528 10523 10513 10509 10504 10497 10496 10496 10494 10492 10488 10483 10479 10477 10473
10479 10479 10485 10491 10491 10490 10493 10498 10501 10503 10508 10511 10511 10513 10516 10520 10526 10530 10530 10532 10535 10535 10536 10539 10542 10543 10543 10545 10546 10546 10546 10546 10546 10548 10553 10557 10558 10558 10555 10554 10554 10552 10550 10549 10549 10549 10548 10551 10555 10558 10560 10563 10563 10561 10561 10561 10560 10560 10562 10561 10558 10554 10549 10543 10538 10537 10531 10517 10513 10523 10518 10503 10509 10516 10501 10490 10489 10483 10480 10481 10481 10479 10476 10472 10468 10464 10461 10458
10468 10469 10475 10480 10480 10480 10485 10491 10494 10496 10501 10503 10501 10504 10509 10511 10513 10517 10519 10523 10525 10525 10524 10525 10528 10532 10535 10537 10536 10534 10535 10534 10532 10536 10543 10547 10548 10547 10544 10544 10543 10541 10541 10540 10540 10540 10540 10542 10548 10549 10550 10553 10553 10549 10549 10551 10552 10552 10552 10552 10550 10543 10538 10536 10530 10526 10516 10498 10497 10512 10503 10489 10498 10500 10482 10472 10469 10462 10462 10464 10463 10460 10457 10454 10453 10449 10445 10441
10453 10460 10467 10469 10469 10471 10477 10484 10487 10487 10490 10491 10489 10493 10499 10500 10502 10507 10511 10513 10514 10514 10513 10512 10516 10522 10526 10526 10523 10520 10520 10520 10521 10527 10532 10534 10534 10532 10531 10532 10532 10533 10534 10532 10531 10532 10532 10536 10541 10538 10537 10542 10540 10537 10537 10537 10537 10540 10541 10541 10539 10533 10530 10527 10519 10510 10498 10485 10487 10494 10483 10477 10486 10482 10465 10457 10452 10448 10448 10449 10448 10445 10441 10439 10437 10434 10430 10425
10440 10447 10455 10458 10460 10463 10468 10474 10475 10475 10478 10480 10478 10480 10487 10491 10494 10498 10501 10501 10502 10505 10504 10503 10507 10511 10512 10511 10507 10504 10506 10509 10513 10518 10518 10516 10516 10518 10519 10520 10521 10523 10523 10521 10522 10522 10522 10526 10530 10525 10522 10527 10528 10524 10522 10520 10520 10523 10528 10530 10528 10524 10520 10512 10502 10494 10484 10475 10475 10471 10462 10466 10474 10463 10448 10443 10440 10436 10435 10435 10435 10432 10428 10425 10422 10418 10415 10410
10433 10435 10441 10447 10451 10455 10458 10462 10462 10462 10465 10467 10468 10472 10478 10482 10486 10488 10489 10490 10492 10495 10496 10497 10500 10500 10497 10494 10491 10493 10497 10500 10501 10502 10500 10499 10501 10505 10506 10507 10509 10510 10510 10511 10511 10509 10508 10512 10516 10513 10507 10510 10516 10510 10503 10502 10502 10504 10515 10522 10518 10511 10504 10495 10488 10482 10472 10464 10459 10451 10446 10454 10458 10445 10433 10431 10429 10425 10423 10422 10422 10419 10415 10411 10406 10403 10400 10395
10427 10427 10429 10434 10439 10442 10446 10449 10450 10449 10450 10454 10459 10465 10468 10472 10476 10477 10477 10478 10481 10484 10485 10488 10489 10486 10482 10480 10481 10486 10490 10488 10486 10486 10485 10484 10487 10490 10491 10493 10497 10498 10498 10499 10497 10495 10495 10496 10500 10498 10490 10493 10501 10493 10485 10485 10481 10486 10508 10515 10502 10492 10488 10481 10474 10468 10459 10449 10441 10436 10436 10441 10438 10429 10423 10422 10418 10414 10412 10412 10409 10406 10401 10395 10391 10388 10384 10379
10419 10419 10420 10422 10423 10426 10432 10437 10438 10437 10439 10445 10451 10455 10457 10461 10464 10464 10464 10467 10472 10475 10476 10478 10476 10471 10468 10470 10474 10478 10477 10474 10472 10472 10470 10470 10473 10475 10477 10480 10483 10483 10483 10485 10483 10482 10482 10480 10481 10479 10471 10474 10482 10477 10470 10464 10460 10477 10502 10499 10480 10476 10473 10463 10455 10450 10443 10433 10426 10424 10425 10424 10419 10415 10414 10413 10409 10404 10404 10402 10398 10393 10387 10379 10375 10373 10368 10363